FW7086 Weather Reports


Display with metric or nautical units.
time (UTC)temp
F
wind
direction
speed
MPH
gust
MPH
rain 1hr
in
rain 24hr
in
rain mn
in
humidity
%
barometer
mb
20210417134024 43 20 1.0 1.0 0.00 0.00 0.00 82 1014.8
20210417133500 42 352 0.0 1.0 0.00 0.00 0.00 82 1014.8
20210417132954 42 16 1.0 1.0 0.00 0.00 0.00 82 1014.8
20210417132755 42 38 1.0 1.0 0.00 0.00 0.00 83 1014.8
20210417132127 42 60 0.0 0.0 0.00 0.00 0.00 83 1014.8
20210417131445 41 312 0.0 1.0 0.00 0.00 0.00 84 1014.5
20210417130935 41 337 5.0 6.0 0.00 0.00 0.00 84 1014.8
20210417130434 41 7 3.0 3.0 0.00 0.00 0.00 84 1014.8
20210417125758 41 327 3.0 5.0 0.00 0.00 0.00 85 1014.5
20210417125022 40 344 4.0 5.0 0.00 0.00 0.00 85 1014.5
20210417124357 40 356 5.0 6.0 0.00 0.00 0.00 86 1014.5
20210417123853 40 3 3.0 3.0 0.00 0.00 0.00 86 1014.5
20210417123356 39 355 3.0 5.0 0.00 0.00 0.00 86 1014.8
20210417122855 39 2 3.0 3.0 0.00 0.00 0.00 86 1014.5
20210417122129 39 29 0.0 1.0 0.00 0.00 0.00 87 1014.5
20210417121335 39 22 1.0 1.0 0.00 0.00 0.00 87 1014.5
20210417120832 39 355 3.0 3.0 0.00 0.00 0.00 87 1014.5
20210417120325 38 23 1.0 2.0 0.00 0.00 0.00 87 1014.5
20210417115940 38 7 0.0 1.0 0.00 0.00 0.00 88 1014.5
20210417114823 38 359 2.0 2.0 0.00 0.00 0.00 89 1014.5
20210417114303 37 5 0.0 0.0 0.00 0.00 0.00 89 1014.5
20210417113801 37 1 0.0 1.0 0.00 0.00 0.00 89 1014.5
20210417113256 37 341 1.0 1.0 0.00 0.00 0.00 89 1014.5
20210417112957 37 27 0.0 0.0 0.00 0.00 0.00 89 1014.1
20210417112748 36 0 1.0 1.0 0.00 0.00 0.00 89 1014.1
20210417111826 36 322 1.0 2.0 0.00 0.00 0.00 89 1014.1
20210417111245 36 2 1.0 1.0 0.00 0.00 0.00 89 1014.1
20210417110722 36 344 1.0 2.0 0.00 0.00 0.00 89 1013.8
20210417110220 36 341 3.0 5.0 0.00 0.00 0.00 89 1013.8
20210417105942 36 343 1.0 1.0 0.00 0.00 0.00 89 1013.8
20210417105721 36 5 1.0 1.0 0.00 0.00 0.00 89 1013.8
20210417104704 36 331 3.0 3.0 0.00 0.00 0.00 89 1013.8
20210417104152 36 358 1.0 1.0 0.00 0.00 0.00 89 1013.8
20210417103712 36 18 2.0 3.0 0.00 0.00 0.00 89 1013.8
20210417103313 36 0 1.0 1.0 0.00 0.00 0.00 88 1013.8
20210417102947 36 357 2.0 2.0 0.00 0.00 0.00 88 1013.8
20210417102514 36 353 1.0 1.0 0.00 0.00 0.00 88 1014.1
20210417101650 36 0 2.0 2.0 0.00 0.00 0.00 89 1014.1
20210417101136 36 337 1.0 1.0 0.00 0.00 0.00 89 1013.8
20210417100629 36 12 0.0 0.0 0.00 0.00 0.00 89 1013.8
20210417100130 36 327 2.0 2.0 0.00 0.00 0.00 89 1013.8
20210417095729 36 346 1.0 1.0 0.00 0.00 0.00 89 1013.8
20210417095321 36 14 0.0 0.0 0.00 0.00 0.00 89 1014.1
20210417094651 36 30 0.0 0.0 0.00 0.00 0.00 89 1013.8
20210417094120 36 14 0.0 0.0 0.00 0.00 0.00 89 1013.8
20210417093628 36 20 0.0 0.0 0.00 0.00 0.00 89 1013.8
20210417093108 36 6 0.0 0.0 0.00 0.00 0.00 89 1014.1
20210417092809 36 39 0.0 0.0 0.00 0.00 0.00 89 1014.5
20210417092231 36 40 0.0 0.0 0.00 0.00 0.00 88 1014.1
20210417091556 36 41 0.0 0.0 0.00 0.00 0.00 88 1014.1
20210417091052 37 44 0.0 0.0 0.00 0.00 0.00 88 1014.1
20210417090552 37 43 0.0 0.0 0.00 0.00 0.00 88 1014.1
20210417090043 37 20 0.0 0.0 0.00 0.00 0.00 88 1014.1
20210417085911 37 27 0.0 0.0 0.00 0.00 0.00 88 1014.1
20210417085328 37 357 1.0 1.0 0.00 0.00 0.00 88 1013.8
20210417084538 37 333 3.0 3.0 0.00 0.00 0.00 88 1014.1
20210417084031 37 334 1.0 1.0 0.00 0.00 0.00 88 1014.1
20210417083521 37 332 1.0 2.0 0.00 0.00 0.00 88 1014.1
20210417083021 37 9 1.0 2.0 0.00 0.00 0.00 89 1014.1
20210417082725 37 23 0.0 0.0 0.00 0.00 0.00 89 1014.1
20210417082102 37 34 0.0 1.0 0.00 0.00 0.00 89 1013.8
20210417081528 36 38 0.0 0.0 0.00 0.00 0.00 88 1014.1
20210417081010 36 41 0.0 0.0 0.00 0.00 0.00 88 1014.1
20210417080456 37 38 0.0 0.0 0.00 0.00 0.00 88 1014.1
20210417075954 37 12 0.0 0.0 0.00 0.00 0.00 88 1013.8
20210417075813 37 352 1.0 1.0 0.00 0.00 0.00 88 1013.8
20210417074958 37 23 0.0 0.0 0.00 0.00 0.00 87 1013.8
20210417074438 37 357 2.0 3.0 0.00 0.00 0.00 88 1013.8
20210417073935 37 10 0.0 0.0 0.00 0.00 0.00 87 1013.8
20210417073424 37 0 0.0 0.0 0.00 0.00 0.00 87 1014.1
20210417072921 37 342 1.0 2.0 0.00 0.00 0.00 87 1014.1
20210417072533 37 354 1.0 2.0 0.00 0.00 0.00 87 1014.1
20210417072043 37 16 0.0 0.0 0.00 0.00 0.00 87 1013.8
20210417071419 37 33 0.0 0.0 0.00 0.00 0.00 87 1013.8
20210417070912 37 32 0.0 0.0 0.00 0.00 0.00 87 1013.8
20210417070412 37 26 0.0 0.0 0.00 0.00 0.00 87 1014.1
20210417065944 37 33 0.0 0.0 0.00 0.00 0.00 86 1013.8
20210417065812 37 32 0.0 0.0 0.00 0.00 0.00 86 1013.8
20210417064943 37 23 0.0 0.0 0.00 0.00 0.00 87 1014.1
20210417064350 37 27 0.0 0.0 0.00 0.00 0.00 87 1014.1
20210417063853 37 23 1.0 1.0 0.00 0.00 0.00 88 1013.8
20210417063347 37 27 1.0 1.0 0.00 0.00 0.00 88 1014.1
20210417063021 37 29 0.0 1.0 0.00 0.00 0.00 89 1013.8
20210417062752 37 36 0.0 1.0 0.00 0.00 0.00 89 1014.1
20210417061916 37 38 1.0 1.0 0.00 0.00 0.00 89 1013.8
20210417061332 37 53 0.0 0.0 0.00 0.00 0.00 89 1014.1
20210417060823 37 59 0.0 0.0 0.00 0.00 0.00 88 1014.1
20210417060314 37 60 0.0 0.0 0.00 0.00 0.00 88 1014.5
20210417060117 37 60 0.0 0.0 0.00 0.00 0.00 88 1014.1
20210417055628 37 59 0.0 0.0 0.00 0.00 0.00 88 1014.5
20210417054801 37 59 0.0 0.0 0.00 0.00 0.00 88 1014.1
20210417054256 37 59 0.0 0.0 0.00 0.00 0.00 88 1014.1
20210417053752 37 59 0.0 0.0 0.00 0.00 0.00 88 1014.5
20210417053331 37 59 0.0 0.0 0.00 0.00 0.00 88 1014.5
20210417053110 37 58 0.0 0.0 0.00 0.00 0.00 88 1014.5
20210417052756 37 59 0.0 0.0 0.00 0.00 0.00 89 1014.5
20210417051751 37 60 0.0 0.0 0.00 0.00 0.00 88 1014.5
20210417051236 37 61 0.0 0.0 0.00 0.00 0.00 88 1014.5
20210417050733 37 62 0.0 0.0 0.00 0.00 0.00 88 1014.5
20210417050224 37 62 0.0 0.0 0.00 0.00 0.00 88 1014.1
20210417045925 37 62 0.0 0.0 0.00 0.00 0.00 88 1014.5
20210417045718 37 61 0.0 0.0 0.00 0.00 0.00 87 1014.5
20210417044719 37 60 0.0 0.0 0.00 0.00 0.00 87 1014.5
20210417044159 37 66 0.0 0.0 0.00 0.00 0.00 87 1014.8
20210417043655 38 68 0.0 0.0 0.00 0.00 0.00 87 1014.8
20210417043149 38 68 0.0 0.0 0.00 0.00 0.00 87 1014.5
20210417042820 38 66 0.0 0.0 0.00 0.00 0.00 87 1014.8
20210417042324 38 64 0.0 0.0 0.00 0.00 0.00 87 1014.5
20210417041639 37 64 0.0 0.0 0.00 0.00 0.00 87 1014.8
20210417041131 37 64 0.0 0.0 0.00 0.00 0.00 87 1014.8
20210417040621 38 64 0.0 0.0 0.00 0.00 0.00 87 1014.8
20210417040141 38 64 0.0 0.0 0.00 0.00 0.00 87 1014.8
20210417035738 37 64 0.0 0.0 0.00 0.00 0.00 87 1014.5
20210417035244 37 66 0.0 0.0 0.00 0.00 0.00 86 1014.8
20210417034616 37 66 0.0 0.0 0.00 0.00 0.00 86 1014.8
20210417034103 38 66 0.0 0.0 0.00 0.00 0.00 86 1015.2
20210417033558 38 65 0.0 0.0 0.00 0.00 0.00 86 1014.8
20210417033053 38 65 0.0 0.0 0.00 0.00 0.00 86 1015.2
20210417032724 38 84 0.0 0.0 0.00 0.00 0.00 86 1015.2
20210417032143 38 85 0.0 0.0 0.00 0.00 0.00 86 1014.8
20210417031542 38 85 0.0 0.0 0.00 0.00 0.00 85 1015.2
20210417031034 38 85 0.0 0.0 0.00 0.00 0.00 85 1015.2
20210417030531 38 86 0.0 0.0 0.00 0.00 0.00 85 1015.2
20210417030043 39 86 0.0 0.0 0.00 0.00 0.00 84 1015.2
20210417025735 39 89 0.0 0.0 0.00 0.00 0.00 84 1015.2
20210417025155 39 59 0.0 0.0 0.00 0.00 0.00 84 1015.5
20210417024526 39 58 0.0 0.0 0.00 0.00 0.00 84 1015.5
20210417024025 39 58 0.0 0.0 0.00 0.00 0.00 83 1015.2
20210417023513 39 64 0.0 0.0 0.00 0.00 0.00 84 1015.2
20210417023022 39 40 0.0 0.0 0.00 0.00 0.00 84 1015.2
20210417022740 39 63 2.0 2.0 0.00 0.00 0.00 85 1015.2
20210417022128 39 68 0.0 0.0 0.00 0.00 0.00 85 1015.2
20210417021448 39 78 0.0 1.0 0.00 0.00 0.00 85 1015.5
20210417020936 39 32 2.0 2.0 0.00 0.00 0.00 85 1015.5
20210417020434 39 33 1.0 1.0 0.00 0.00 0.00 84 1015.5
20210417015933 40 34 1.0 1.0 0.00 0.00 0.00 84 1015.2
20210417015743 40 56 1.0 2.0 0.00 0.00 0.00 84 1015.5
20210417015028 40 56 2.0 3.0 0.00 0.00 0.00 84 1015.5
20210417014429 40 45 1.0 1.0 0.00 0.00 0.00 83 1015.5
20210417013922 40 74 1.0 1.0 0.00 0.00 0.00 83 1015.5
20210417013423 40 48 0.0 0.0 0.00 0.00 0.00 83 1015.5
20210417013044 40 2 3.0 3.0 0.00 0.00 0.00 83 1015.5
20210417012853 40 23 1.0 2.0 0.00 0.00 0.00 83 1015.5
20210417012048 41 55 2.0 2.0 0.00 0.00 0.00 82 1015.5
20210417011353 41 76 1.0 1.0 0.00 0.00 0.00 82 1015.2
20210417010845 41 62 0.0 0.0 0.00 0.00 0.00 81 1015.5
20210417010343 41 57 0.0 1.0 0.00 0.00 0.00 81 1015.2
20210417010111 41 49 1.0 1.0 0.00 0.00 0.00 81 1015.2
20210417005815 42 66 3.0 5.0 0.00 0.00 0.00 80 1015.2
20210417005000 42 54 3.0 3.0 0.00 0.00 0.00 80 1015.2
20210417004328 42 57 4.0 5.0 0.00 0.00 0.00 80 1014.8
20210417003835 42 46 8.0 10.0 0.00 0.00 0.00 79 1014.8
20210417003320 43 61 2.0 3.0 0.00 0.00 0.00 79 1014.5
20210417002914 43 67 6.0 8.0 0.00 0.00 0.00 78 1014.5
20210417002741 43 88 1.0 3.0 0.00 0.00 0.00 78 1014.5
20210417001821 44 10 1.0 2.0 0.00 0.00 0.00 77 1014.5
20210417001258 44 45 4.0 6.0 0.00 0.00 0.00 76 1014.5
20210417000756 44 47 1.0 2.0 0.00 0.00 0.00 75 1014.5
20210417000330 45 89 1.0 1.0 0.00 0.00 0.00 74 1014.5
20210416235952 45 63 4.0 6.0 0.00 0.00 0.00 73 1014.5
20210416235812 46 60 1.0 2.0 0.00 0.00 0.00 73 1014.5
20210416234814 46 56 2.0 3.0 0.00 0.00 0.00 72 1014.5
20210416234247 46 8 2.0 3.0 0.00 0.00 0.00 72 1014.1
20210416233729 46 70 1.0 1.0 0.00 0.00 0.00 71 1014.5
20210416233231 47 50 3.0 5.0 0.00 0.00 0.00 71 1014.1
20210416232914 47 57 5.0 7.0 0.00 0.00 0.00 70 1014.1
20210416232558 47 48 1.0 1.0 0.00 0.00 0.00 70 1014.5
20210416231714 47 30 1.0 2.0 0.00 0.00 0.00 70 1014.1
20210416231211 48 85 3.0 5.0 0.00 0.00 0.00 69 1014.1
20210416230702 48 53 6.0 8.0 0.00 0.00 0.00 69 1014.1
20210416230259 50 39 5.0 6.0 0.00 0.00 0.00 67 1014.1
20210416230044 50 21 2.0 3.0 0.00 0.00 0.00 67 1014.1
20210416225532 50 62 3.0 5.0 0.00 0.00 0.00 67 1014.1
20210416224650 50 64 3.0 6.0 0.00 0.00 0.00 66 1013.8
20210416224138 50 47 1.0 2.0 0.00 0.00 0.00 66 1014.1
20210416223633 50 62 4.0 8.0 0.00 0.00 0.00 66 1014.1
20210416223136 51 82 2.0 2.0 0.00 0.00 0.00 64 1013.8
20210416222931 51 73 5.0 6.0 0.00 0.00 0.00 64 1014.1
20210416222646 51 79 2.0 3.0 0.00 0.00 0.00 64 1013.8
20210416221617 51 23 1.0 3.0 0.00 0.00 0.00 64 1013.8
20210416221107 52 60 8.0 10.0 0.00 0.00 0.00 63 1013.8
20210416220625 52 70 1.0 2.0 0.00 0.00 0.00 63 1013.8
20210416220131 53 355 2.0 3.0 0.00 0.00 0.00 62 1013.8
20210416215942 54 9 2.0 3.0 0.00 0.00 0.00 60 1014.1
20210416215523 54 328 2.0 3.0 0.00 0.00 0.00 61 1013.8
20210416214554 54 20 3.0 5.0 0.00 0.00 0.00 60 1013.8
20210416214046 53 82 5.0 6.0 0.00 0.00 0.00 61 1013.8
20210416213544 54 69 3.0 5.0 0.00 0.00 0.00 61 1014.1
20210416213042 54 53 3.0 6.0 0.00 0.00 0.00 61 1013.8
20210416212815 54 42 2.0 2.0 0.00 0.00 0.00 60 1013.8
20210416212346 53 39 2.0 3.0 0.00 0.00 0.00 62 1014.1
20210416211525 54 5 5.0 6.0 0.00 0.00 0.00 60 1013.8
20210416211018 54 45 2.0 2.0 0.00 0.00 0.00 61 1014.1
20210416210518 55 64 1.0 2.0 0.00 0.00 0.00 61 1014.1
20210416210024 53 47 0.0 0.0 0.00 0.00 0.00 62 1013.8
20210416205639 54 22 2.0 2.0 0.00 0.00 0.00 61 1014.1
20210416205019 55 62 1.0 2.0 0.00 0.00 0.00 61 1013.8
20210416204456 54 1 3.0 3.0 0.00 0.00 0.00 61 1014.1
20210416203957 54 47 3.0 5.0 0.00 0.00 0.00 62 1014.1
20210416203451 53 56 1.0 5.0 0.00 0.00 0.00 63 1014.1
20210416202937 53 45 4.0 6.0 0.00 0.00 0.00 62 1014.5
20210416202804 55 63 1.0 1.0 0.00 0.00 0.00 61 1014.1
20210416202031 53 70 4.0 6.0 0.00 0.00 0.00 61 1014.5
20210416201425 54 55 0.0 1.0 0.00 0.00 0.00 62 1014.5
20210416200921 54 97 1.0 1.0 0.00 0.00 0.00 62 1014.1
20210416200416 54 96 3.0 5.0 0.00 0.00 0.00 60 1014.5
20210416200101 55 51 1.0 2.0 0.00 0.00 0.00 61 1014.5
20210416195847 54 14 3.0 3.0 0.00 0.00 0.00 61 1014.5
20210416195243 54 17 3.0 3.0 0.00 0.00 0.00 61 1014.1
20210416194351 54 45 3.0 6.0 0.00 0.00 0.00 62 1014.1
20210416193848 54 45 3.0 5.0 0.00 0.00 0.00 60 1014.1
20210416193457 54 12 3.0 3.0 0.00 0.00 0.00 62 1014.1
20210416193246 53 14 3.0 5.0 0.00 0.00 0.00 62 1014.1
20210416193059 52 72 5.0 6.0 0.00 0.00 0.00 61 1014.1
20210416192022 52 80 3.0 5.0 0.00 0.00 0.00 63 1014.1
20210416191322 52 95 3.0 5.0 0.00 0.00 0.00 63 1014.5
20210416190815 53 83 5.0 8.0 0.00 0.00 0.00 62 1013.8
20210416190306 53 90 4.0 5.0 0.00 0.00 0.00 63 1014.1
20210416190012 52 344 3.0 3.0 0.00 0.00 0.00 64 1014.1
20210416185321 53 66 5.0 7.0 0.00 0.00 0.00 62 1014.1
20210416184759 52 51 2.0 3.0 0.00 0.00 0.00 63 1014.1
20210416184300 52 81 5.0 8.0 0.00 0.00 0.00 63 1014.1
20210416183800 53 86 5.0 7.0 0.00 0.00 0.00 62 1014.1
20210416183251 53 58 7.0 8.0 0.00 0.00 0.00 62 1014.1
20210416182928 53 71 3.0 5.0 0.00 0.00 0.00 62 1014.1
20210416182755 54 41 3.0 5.0 0.00 0.00 0.00 61 1014.1
20210416181914 56 79 3.0 7.0 0.00 0.00 0.00 59 1014.1
20210416181237 55 13 2.0 2.0 0.00 0.00 0.00 58 1014.1
20210416180738 55 326 2.0 2.0 0.00 0.00 0.00 55 1014.1
20210416180225 54 269 5.0 6.0 0.00 0.00 0.00 54 1014.1
20210416175815 53 281 2.0 2.0 0.00 0.00 0.00 55 1014.1
20210416175404 53 10 5.0 6.0 0.00 0.00 0.00 56 1014.5
20210416174718 54 73 0.0 0.0 0.00 0.00 0.00 56 1014.5
20210416174220 54 18 1.0 1.0 0.00 0.00 0.00 56 1014.1
20210416173710 55 329 3.0 3.0 0.00 0.00 0.00 56 1014.5
20210416173149 54 89 0.0 1.0 0.00 0.00 0.00 56 1014.5
20210416172835 53 300 4.0 5.0 0.00 0.00 0.00 56 1014.5
20210416172550 53 315 3.0 3.0 0.00 0.00 0.00 55 1014.5
20210416171641 52 28 2.0 3.0 0.00 0.00 0.00 58 1014.8
20210416171140 53 320 3.0 3.0 0.00 0.00 0.00 57 1014.8
20210416170635 51 9 1.0 1.0 0.00 0.00 0.00 58 1014.8
20210416170132 52 256 2.0 2.0 0.00 0.00 0.00 59 1015.2
20210416165940 52 62 0.0 1.0 0.00 0.00 0.00 61 1015.2
20210416165511 51 21 1.0 2.0 0.00 0.00 0.00 61 1015.2
20210416164614 51 311 3.0 3.0 0.00 0.00 0.00 60 1015.2
20210416164111 51 38 1.0 2.0 0.00 0.00 0.00 61 1015.5
20210416163601 50 307 4.0 5.0 0.00 0.00 0.00 63 1015.5
20210416163059 50 50 2.0 3.0 0.00 0.00 0.00 64 1015.5
20210416162726 50 341 6.0 7.0 0.00 0.00 0.00 62 1015.5
20210416162239 50 302 1.0 1.0 0.00 0.00 0.00 65 1015.8
20210416161555 50 350 3.0 5.0 0.00 0.00 0.00 63 1015.8
20210416161046 50 349 1.0 2.0 0.00 0.00 0.00 65 1015.5
20210416160548 50 53 1.0 1.0 0.00 0.00 0.00 65 1015.8
20210416160042 49 332 4.0 5.0 0.00 0.00 0.00 67 1016.2
20210416155855 49 248 3.0 3.0 0.00 0.00 0.00 67 1016.2
20210416155228 49 331 3.0 3.0 0.00 0.00 0.00 67 1016.2
20210416154524 48 32 4.0 6.0 0.00 0.00 0.00 68 1016.2
20210416154024 48 349 3.0 3.0 0.00 0.00 0.00 67 1016.2
20210416153514 48 354 3.0 5.0 0.00 0.00 0.00 68 1016.5
20210416153023 48 249 3.0 5.0 0.00 0.00 0.00 69 1016.5
20210416152713 48 245 3.0 6.0 0.00 0.00 0.00 68 1016.5
20210416152051 47 281 2.0 3.0 0.00 0.00 0.00 70 1016.5
20210416151450 48 356 2.0 2.0 0.00 0.00 0.00 69 1016.9
20210416150953 48 21 1.0 1.0 0.00 0.00 0.00 69 1016.9
20210416150450 48 356 1.0 2.0 0.00 0.00 0.00 69 1016.9
20210416150233 47 356 2.0 2.0 0.00 0.00 0.00 70 1016.5
20210416145912 47 20 3.0 3.0 0.00 0.00 0.00 70 1016.5
20210416145224 48 246 1.0 2.0 0.00 0.00 0.00 69 1016.9
20210416144429 48 3 2.0 3.0 0.00 0.00 0.00 70 1016.9
20210416143930 46 66 3.0 5.0 0.00 0.00 0.00 71 1016.9
20210416143424 46 338 1.0 2.0 0.00 0.00 0.00 71 1016.9
20210416142935 45 41 0.0 0.0 0.00 0.00 0.00 74 1017.3
20210416142829 44 8 0.0 1.0 0.00 0.00 0.00 75 1016.9
20210416142118 45 25 2.0 2.0 0.00 0.00 0.00 75 1016.9
20210416141412 45 349 2.0 2.0 0.00 0.00 0.00 74 1016.9
20210416140906 44 3 0.0 0.0 0.00 0.00 0.00 75 1016.9
20210416140405 44 352 0.0 0.0 0.00 0.00 0.00 76 1016.9
20210416140112 44 337 1.0 2.0 0.00 0.00 0.00 75 1016.9
20210416135904 45 326 3.0 5.0 0.00 0.00 0.00 74 1016.9
20210416135112 46 13 2.0 3.0 0.00 0.00 0.00 73 1016.9